| time (UTC) | temp F | wind direction | speed MPH | gust MPH | rain 1hr in | rain 24hr in | rain mn in | humidity % | barometer mb |
| 20260507001506 | 53 | 179 | 4.0 | 9.0 | 0.00 | 0.00 | 0.00 | 28 | 1012.9 |
| 20260507000004 | 54 | 157 | 0.0 | 9.0 | 0.00 | 0.00 | 0.00 | 27 | 1013.2 |
| 20260506234502 | 53 | 100 | 0.0 | 0.0 | 0.00 | 0.00 | 0.00 | 27 | 1013.5 |
| 20260506233001 | 54 | 324 | 0.0 | 2.0 | 0.00 | 0.00 | 0.00 | 26 | 1013.5 |
| 20260506231602 | 54 | 23 | 0.0 | 13.0 | 0.00 | 0.00 | 0.00 | 27 | 1013.8 |
| 20260506230058 | 53 | 229 | 0.0 | 11.0 | 0.00 | 0.00 | 0.00 | 27 | 1014.0 |
| 20260506224558 | 54 | 115 | 0.0 | 3.0 | 0.00 | 0.00 | 0.00 | 27 | 1014.1 |
| 20260506223101 | 53 | 79 | 0.0 | 2.0 | 0.00 | 0.00 | 0.00 | 26 | 1014.1 |
| 20260506221555 | 55 | 236 | 0.0 | 1.0 | 0.00 | 0.00 | 0.00 | 26 | 1014.3 |
| 20260506220053 | 53 | 22 | 0.0 | 10.0 | 0.00 | 0.00 | 0.00 | 26 | 1014.7 |
| 20260506214551 | 55 | 34 | 1.0 | 9.0 | 0.00 | 0.00 | 0.00 | 25 | 1014.9 |
| 20260506213047 | 54 | 152 | 0.0 | 7.0 | 0.00 | 0.00 | 0.00 | 27 | 1015.3 |
| 20260506211552 | 52 | 18 | 0.0 | 14.0 | 0.00 | 0.00 | 0.00 | 28 | 1015.6 |
| 20260506210044 | 52 | 67 | 4.0 | 12.0 | 0.00 | 0.00 | 0.00 | 27 | 1015.9 |
| 20260506204542 | 54 | 297 | 1.0 | 8.0 | 0.00 | 0.00 | 0.00 | 26 | 1016.0 |
| 20260506203039 | 53 | 360 | 3.0 | 14.0 | 0.00 | 0.00 | 0.00 | 28 | 1016.2 |
| 20260506201536 | 52 | 247 | 0.0 | 5.0 | 0.00 | 0.00 | 0.00 | 31 | 1016.4 |
| 20260506200034 | 51 | 19 | 0.0 | 2.0 | 0.00 | 0.00 | 0.00 | 29 | 1016.8 |
| 20260506194536 | 52 | 355 | 0.0 | 11.0 | 0.00 | 0.00 | 0.00 | 30 | 1017.0 |
| 20260506193032 | 50 | 121 | 0.0 | 9.0 | 0.00 | 0.00 | 0.00 | 30 | 1017.2 |
| 20260506191526 | 49 | 112 | 0.0 | 13.0 | 0.00 | 0.00 | 0.00 | 31 | 1017.3 |
| 20260506190025 | 50 | 14 | 1.0 | 14.0 | 0.00 | 0.00 | 0.00 | 30 | 1017.4 |
| 20260506184526 | 50 | 22 | 0.0 | 9.0 | 0.00 | 0.00 | 0.00 | 31 | 1017.6 |
| 20260506183020 | 49 | 28 | 2.0 | 15.0 | 0.00 | 0.00 | 0.00 | 30 | 1018.0 |
| 20260506181517 | 49 | 11 | 0.0 | 13.0 | 0.00 | 0.00 | 0.00 | 32 | 1018.1 |
| 20260506180015 | 48 | 44 | 5.0 | 13.0 | 0.00 | 0.00 | 0.00 | 31 | 1018.5 |
| 20260506174514 | 48 | 29 | 11.0 | 18.0 | 0.00 | 0.00 | 0.00 | 31 | 1018.6 |
| 20260506173011 | 47 | 11 | 3.0 | 17.0 | 0.00 | 0.00 | 0.00 | 33 | 1018.8 |
| 20260506171509 | 46 | 30 | 5.0 | 17.0 | 0.00 | 0.00 | 0.00 | 34 | 1019.0 |
| 20260506170010 | 46 | 5 | 6.0 | 17.0 | 0.00 | 0.00 | 0.00 | 33 | 1019.3 |
| 20260506164507 | 47 | 27 | 4.0 | 16.0 | 0.00 | 0.00 | 0.00 | 32 | 1019.4 |
| 20260506163008 | 46 | 360 | 13.0 | 19.0 | 0.00 | 0.00 | 0.00 | 32 | 1019.4 |
| 20260506161507 | 45 | 343 | 6.0 | 16.0 | 0.00 | 0.00 | 0.00 | 34 | 1019.6 |
| 20260506160006 | 45 | 42 | 0.0 | 14.0 | 0.00 | 0.00 | 0.00 | 34 | 1019.8 |
| 20260506154503 | 45 | 324 | 0.0 | 13.0 | 0.00 | 0.00 | 0.00 | 33 | 1020.0 |
| 20260506153002 | 44 | 5 | 5.0 | 17.0 | 0.00 | 0.00 | 0.00 | 33 | 1020.1 |
| 20260506151502 | 45 | 313 | 3.0 | 17.0 | 0.00 | 0.00 | 0.00 | 33 | 1020.2 |
| 20260506150104 | 45 | 344 | 2.0 | 17.0 | 0.00 | 0.00 | 0.00 | 33 | 1020.3 |
| 20260506144611 | 44 | 316 | 9.0 | 18.0 | 0.00 | 0.01 | 0.00 | 34 | 1020.5 |
| 20260506143056 | 43 | 329 | 8.0 | 18.0 | 0.00 | 0.01 | 0.00 | 35 | 1020.5 |
| 20260506141553 | 43 | 334 | 4.0 | 15.0 | 0.00 | 0.01 | 0.00 | 37 | 1020.4 |
| 20260506140105 | 42 | 344 | 6.0 | 15.0 | 0.00 | 0.01 | 0.00 | 38 | 1020.6 |
| 20260506134546 | 41 | 302 | 1.0 | 13.0 | 0.00 | 0.01 | 0.00 | 41 | 1020.7 |
| 20260506133051 | 39 | 338 | 3.0 | 11.0 | 0.00 | 0.01 | 0.00 | 46 | 1020.6 |
| 20260506131544 | 34 | 300 | 0.0 | 1.0 | 0.00 | 0.01 | 0.00 | 54 | 1020.7 |
| 20260506130039 | 32 | 302 | 0.0 | 0.0 | 0.00 | 0.01 | 0.00 | 57 | 1020.6 |
| 20260506124529 | 31 | 257 | 0.0 | 1.0 | 0.00 | 0.01 | 0.00 | 58 | 1020.5 |
| 20260506123036 | 30 | 254 | 0.0 | 0.0 | 0.00 | 0.01 | 0.00 | 60 | 1020.4 |
| 20260506121523 | 29 | 212 | 0.0 | 0.0 | 0.00 | 0.01 | 0.00 | 60 | 1020.4 |
| 20260506120030 | 29 | 195 | 0.0 | 0.0 | 0.00 | 0.01 | 0.00 | 61 | 1020.4 |
| 20260506114620 | 28 | 191 | 0.0 | 0.0 | 0.00 | 0.01 | 0.00 | 61 | 1020.4 |
| 20260506113053 | 29 | 192 | 0.0 | 0.0 | 0.00 | 0.01 | 0.00 | 60 | 1020.2 |
| 20260506111548 | 29 | 192 | 0.0 | 0.0 | 0.00 | 0.01 | 0.00 | 60 | 1020.0 |
| 20260506110048 | 29 | 192 | 0.0 | 0.0 | 0.00 | 0.01 | 0.00 | 60 | 1020.0 |
| 20260506104555 | 29 | 193 | 0.0 | 0.0 | 0.00 | 0.01 | 0.00 | 59 | 1019.9 |
| 20260506103045 | 29 | 194 | 0.0 | 0.0 | 0.00 | 0.01 | 0.00 | 59 | 1020.0 |
| 20260506101543 | 30 | 194 | 0.0 | 0.0 | 0.00 | 0.01 | 0.00 | 56 | 1019.9 |
| 20260506100053 | 31 | 194 | 0.0 | 0.0 | 0.00 | 0.01 | 0.00 | 57 | 1019.7 |
| 20260506094543 | 30 | 194 | 0.0 | 0.0 | 0.00 | 0.01 | 0.00 | 58 | 1019.7 |
| 20260506093039 | 30 | 194 | 0.0 | 0.0 | 0.00 | 0.01 | 0.00 | 57 | 1019.7 |
| 20260506091539 | 30 | 194 | 0.0 | 0.0 | 0.00 | 0.01 | 0.00 | 58 | 1019.8 |
| 20260506090040 | 31 | 194 | 0.0 | 0.0 | 0.00 | 0.01 | 0.00 | 54 | 1019.6 |
| 20260506084538 | 31 | 194 | 0.0 | 0.0 | 0.00 | 0.01 | 0.00 | 56 | 1019.6 |
| 20260506083034 | 31 | 194 | 0.0 | 0.0 | 0.00 | 0.01 | 0.00 | 55 | 1019.5 |
| 20260506081531 | 31 | 240 | 0.0 | 0.0 | 0.00 | 0.01 | 0.00 | 55 | 1019.4 |
| 20260506073028 | 32 | 298 | 0.0 | 0.0 | 0.00 | 0.01 | 0.00 | 55 | 1019.4 |
| 20260506071527 | 32 | 298 | 0.0 | 0.0 | 0.00 | 0.01 | 0.00 | 55 | 1019.4 |
| 20260506061518 | 34 | 298 | 0.0 | 0.0 | 0.00 | 0.01 | 0.00 | 54 | 1019.2 |
| 20260506044510 | 37 | 346 | 0.0 | 5.0 | 0.00 | 0.02 | 0.01 | 48 | 1018.8 |
| 20260506043009 | 38 | 344 | 1.0 | 10.0 | 0.00 | 0.02 | 0.01 | 48 | 1018.8 |
| 20260506041509 | 38 | 355 | 0.0 | 8.0 | 0.00 | 0.02 | 0.01 | 48 | 1018.7 |
| 20260506040007 | 39 | 347 | 0.0 | 8.0 | 0.00 | 0.02 | 0.01 | 47 | 1018.6 |
| 20260506034507 | 39 | 325 | 0.0 | 12.0 | 0.00 | 0.02 | 0.01 | 47 | 1018.5 |
| 20260506033005 | 39 | 329 | 0.0 | 10.0 | 0.00 | 0.02 | 0.01 | 47 | 1018.5 |
| 20260506031503 | 39 | 344 | 1.0 | 17.0 | 0.00 | 0.02 | 0.01 | 46 | 1018.3 |
| 20260506030004 | 40 | 351 | 0.0 | 16.0 | 0.00 | 0.02 | 0.01 | 46 | 1018.1 |
| 20260506024602 | 40 | 345 | 0.0 | 4.0 | 0.00 | 0.02 | 0.01 | 45 | 1017.8 |
| 20260506023104 | 40 | 327 | 11.0 | 19.0 | 0.00 | 0.02 | 0.01 | 44 | 1017.5 |
| 20260506021555 | 40 | 331 | 2.0 | 16.0 | 0.00 | 0.02 | 0.01 | 46 | 1017.1 |
| 20260506020056 | 41 | 331 | 5.0 | 18.0 | 0.00 | 0.02 | 0.01 | 44 | 1016.8 |
| 20260506014552 | 41 | 360 | 7.0 | 18.0 | 0.00 | 0.02 | 0.01 | 45 | 1016.5 |
| 20260506013103 | 41 | 346 | 3.0 | 16.0 | 0.00 | 0.02 | 0.01 | 44 | 1016.2 |
| 20260506011547 | 42 | 341 | 6.0 | 15.0 | 0.00 | 0.02 | 0.01 | 47 | 1016.1 |
| 20260506010058 | 42 | 318 | 11.0 | 17.0 | 0.00 | 0.02 | 0.01 | 47 | 1015.9 |
| 20260506004544 | 42 | 333 | 4.0 | 16.0 | 0.00 | 0.02 | 0.01 | 48 | 1015.7 |
| 20260506003043 | 43 | 327 | 11.0 | 20.0 | 0.00 | 0.02 | 0.01 | 46 | 1015.5 |
| 20260506001548 | 44 | 323 | 12.0 | 21.0 | 0.00 | 0.02 | 0.01 | 45 | 1015.3 |